Doha, Qatar

10:34 PM +03 on November 24, 2017 (GMT +0300)
Doha International

Weather History for OTBD - September, 2013

Change the Weather History Date:

Tuesday, September 24, 2013

  Actual Average Record
Temperature  
Mean Temperature 94 °F -  
Max Temperature 101 °F 96 °F 108 °F (2014)
Min Temperature 88 °F 75 °F 78 °F (2004)
Cooling Degree Days 30    
Growing Degree Days 44 (Base 50)    
Moisture  
Dew Point 63 °F    
Average Humidity 38    
Maximum Humidity 62    
Minimum Humidity 10    
Precipitation  
Precipitation 0.00 in 0.00 in - ()
Sea Level Pressure  
Sea Level Pressure 29.69 in    
Wind  
Wind Speed 9 mph ()    
Max Wind Speed 20 mph    
Max Gust Speed 26 mph    
Visibility 7.8 miles    
Events      
Averages and records for this station are not official NWS values.
T = Trace of Precipitation, MM = Missing Value Source: Averaged Metar Reports

Daily Weather History Graph

Daily Weather History Graph

Search for Another Location

Airport or City:

Trip Planner

Search our weather history database for the weather conditions in past years. The results will help you decide how hot, cold, wet, or windy it might be!

Date:

Astronomy

Sep. 24, 2013 Rise Set
Actual Time 5:23 AM +03 5:28 PM +03
Civil Twilight 5:00 AM +03 5:50 PM +03
Nautical Twilight 4:33 AM +03 6:17 PM +03
Astronomical Twilight 4:06 AM +03 6:44 PM +03
Moon 8:57 PM +03 9:47 AM +03
Length of Visible Light 12h 50m
Length of Day
12h 05m
Waning Gibbous, 75% of the Moon is Illuminated
Sep 24
Waning Gibbous
Sep 27
Last Quarter
Oct 5
New
Oct 12
First Quarter
Oct 19
Full

Hourly Weather History & Observations

Time (+03) Temp. Heat Index Dew Point Humidity Pressure Visibility Wind Dir Wind Speed Gust Speed Precip Events Conditions
12:00 AM 91.4 °F 100.1 °F 73.4 °F 55% 29.65 in - NNW 5.8 mph - N/A   Clear
12:30 AM 91.4 °F 100.1 °F 73.4 °F 55% 29.65 in - NW 6.9 mph - N/A   Clear
1:00 AM 91.4 °F 98.4 °F 71.6 °F 52% 29.65 in - NW 8.1 mph - N/A   Clear
1:30 AM 89.6 °F 98.2 °F 73.4 °F 59% 29.65 in - NW 6.9 mph - N/A   Clear
2:00 AM 89.6 °F 98.2 °F 73.4 °F 59% 29.65 in - NW 9.2 mph - N/A   Clear
2:30 AM 89.6 °F 99.8 °F 75.2 °F 62% 29.65 in - NW 9.2 mph - N/A   Clear
3:00 AM 89 °F - 74 °F 54% 29.67 in 6 mi NW 8.1 mph - -  
3:00 AM 89.6 °F 99.8 °F 75.2 °F 62% 29.65 in - NW 8.1 mph - N/A   Clear
3:30 AM 89.6 °F 99.8 °F 75.2 °F 62% 29.65 in - NW 9.2 mph - N/A   Clear
4:00 AM 89.6 °F 98.2 °F 73.4 °F 59% 29.65 in - WNW 10.4 mph - N/A   Clear
4:30 AM 89.6 °F 96.2 °F 71.6 °F 55% 29.68 in - WNW 6.9 mph - N/A   Clear
5:00 AM 87.8 °F 95.6 °F 73.4 °F 62% 29.68 in - West 3.5 mph - N/A   Clear
5:30 AM 87.8 °F 93.8 °F 71.6 °F 58% 29.68 in - WNW 5.8 mph - N/A   Clear
6:00 AM 87.8 °F 95.6 °F 73.4 °F 62% 29.68 in - West 3.5 mph - N/A   Clear
6:30 AM 89.6 °F 98.2 °F 73.4 °F 59% 29.71 in - West 3.5 mph - N/A   Clear
7:00 AM 91.4 °F 98.4 °F 71.6 °F 52% 29.71 in - Variable 4.6 mph - N/A   Clear
7:30 AM 91.4 °F 96.8 °F 69.8 °F 49% 29.71 in - WNW 4.6 mph - N/A   Clear
8:00 AM 93.2 °F 98.8 °F 69.8 °F 46% 29.74 in - WNW 10.4 mph - N/A   Clear
8:30 AM 95.0 °F 99.5 °F 68.0 °F 41% 29.74 in - WNW 8.1 mph - N/A   Clear
9:00 AM 96 °F - 62 °F 23% 29.75 in 9 mi NW 13.8 mph - -   Scattered Clouds
9:00 AM 96.8 °F 98.0 °F 62.6 °F 32% 29.74 in 6.2 mi NW 13.8 mph - N/A   Partly Cloudy
9:30 AM 96.8 °F 96.2 °F 59.0 °F 28% 29.74 in - WNW 15.0 mph - N/A   Clear
10:00 AM 98.6 °F 96.4 °F 53.6 °F 22% 29.71 in - NW 17.3 mph - N/A   Clear
11:00 AM 100.4 °F - 51.8 °F 20% 29.71 in - WNW 13.8 mph 26.5 mph N/A   Clear
11:30 AM 100.4 °F - 51.8 °F 20% 29.71 in - NW 18.4 mph - N/A   Clear
12:00 PM 100.4 °F - 51.8 °F 20% 29.68 in - NW 19.6 mph - N/A   Clear
1:00 PM 100.4 °F - 50.0 °F 18% 29.68 in - NW 16.1 mph - N/A   Clear
1:30 PM 102.2 °F - 50.0 °F 17% 29.68 in - NW 15.0 mph - N/A   Clear
2:00 PM 100.4 °F - 50.0 °F 18% 29.68 in - NW 15.0 mph - N/A   Clear
2:30 PM 100.4 °F - 50.0 °F 18% 29.65 in - NNW 17.3 mph - N/A   Clear
3:00 PM 100 °F - 49 °F 10% 29.68 in 9 mi NW 15.0 mph - -  
3:00 PM 100.4 °F - 50.0 °F 18% 29.65 in - NW 15.0 mph - N/A   Clear
3:30 PM 100.4 °F - 51.8 °F 20% 29.65 in - NNW 17.3 mph - N/A   Clear
4:00 PM 98.6 °F 97.6 °F 57.2 °F 25% 29.65 in - NNW 15.0 mph - N/A   Clear
4:30 PM 98.6 °F 97.6 °F 57.2 °F 25% 29.68 in - NW 15.0 mph - N/A   Clear
5:00 PM 96.8 °F 95.8 °F 57.2 °F 27% 29.68 in - NW 13.8 mph - N/A   Clear
5:30 PM 95.0 °F 93.7 °F 57.2 °F 28% 29.68 in - NW 12.7 mph - N/A   Clear
6:00 PM 95.0 °F 94.4 °F 59.0 °F 30% 29.68 in - NNW 15.0 mph - N/A   Clear
6:30 PM 93.2 °F 92.6 °F 59.0 °F 32% 29.71 in - NW 13.8 mph - N/A   Clear
7:00 PM 93.2 °F 91.9 °F 57.2 °F 30% 29.71 in - NW 12.7 mph - N/A   Clear
7:30 PM 93.2 °F 92.6 °F 59.0 °F 32% 29.71 in - NW 11.5 mph - N/A   Clear
8:00 PM 91.4 °F 91.4 °F 60.8 °F 36% 29.71 in - NW 11.5 mph - N/A   Clear
8:30 PM 91.4 °F 91.4 °F 60.8 °F 36% 29.71 in - NW 11.5 mph - N/A   Clear
9:00 PM 91 °F - 62 °F 27% 29.72 in 9 mi NW 11.5 mph - -  
9:00 PM 91.4 °F 91.4 °F 60.8 °F 36% 29.71 in - NW 11.5 mph - N/A   Clear
9:30 PM 91.4 °F 91.4 °F 60.8 °F 36% 29.71 in - NW 11.5 mph - N/A   Clear
10:00 PM 91.4 °F 92.1 °F 62.6 °F 38% 29.71 in - NW 11.5 mph - N/A   Clear
10:30 PM 91.4 °F 92.1 °F 62.6 °F 38% 29.71 in - NW 9.2 mph - N/A   Clear
11:00 PM 89.6 °F 90.1 °F 62.6 °F 40% 29.68 in - NW 9.2 mph - N/A   Clear
11:30 PM 89.6 °F 90.1 °F 62.6 °F 40% 29.68 in - NW 8.1 mph - N/A   Clear